This demonstration page uses our WeatherBlox Daily Observations layout. Learn more.

Left ArrowRight Arrow

44.89941, -97.11507

Hourly Observations for June 11, 2016

Temp ( °F °C ) Dew Point ( °F °C ) Humidity (%) Winds ( mph kmh ) Pressure ( in mb ) Visibility ( mi km ) Precip ( " mm )
12:53 am 00:53 Clear 75 23.9 58 14.4 55 55 E 5 7 29.86 1011 10 16 0.00 0.00
1:53 am 01:53 Clear 72 22.2 59 15 64 64 Calm 29.86 1011 10 16 0.00 0.00
2:53 am 02:53 Clear 69 20.6 58 14.4 68 68 Calm 29.85 1011 10 16 0.00 0.00
3:53 am 03:53 Clear 68 20 59 15 73 73 Calm 29.85 1011 10 16 0.00 0.00
4:53 am 04:53 Clear 73 22.8 58 14.4 59 59 ESE 5 7 29.85 1011 10 16 0.00 0.00
5:53 am 05:53 Sunny 72 22.2 58 14.4 61 61 E 5 7 29.88 1012 10 16 0.00 0.00
6:53 am 06:53 Sunny 74 23.3 60 15.6 62 62 ENE 6 9 29.88 1012 10 16 0.00 0.00
7:53 am 07:53 Sunny 77 25 62 16.7 60 60 NE 9 15 29.90 1013 10 16 0.00 0.00
8:53 am 08:53 Sunny 78 25.6 62 16.7 58 58 NE 9 15 29.92 1013 10 16 0.00 0.00
9:53 am 09:53 Sunny 81 27.2 60 15.6 49 49 ENE 10 17 29.92 1013 10 16 0.00 0.00
10:53 am 10:53 Sunny 84 28.9 62 16.7 48 48 ENE 15 24 29.91 1013 10 16 0.00 0.00
11:53 am 11:53 Sunny 85 29.4 59 15 42 42 E 18 30 29.91 1013 10 16 0.00 0.00
12:53 pm 12:53 Sunny 88 31.1 56 13.3 34 34 E 17 28 29.91 1013 10 16 0.00 0.00
1:53 pm 13:53 Sunny 89 31.7 57 13.9 34 34 E 16 26 29.90 1012 10 16 0.00 0.00
2:53 pm 14:53 Sunny 91 32.8 56 13.3 31 31 E 15 24 29.88 1012 10 16 0.00 0.00
3:53 pm 15:53 Sunny 92 33.3 57 13.9 31 31 SE 13 20 29.88 1012 10 16 0.00 0.00
4:53 pm 16:53 Sunny 92 33.3 61 16.1 36 36 SE 13 20 29.88 1012 10 16 0.00 0.00
5:53 pm 17:53 Sunny 92 33.3 64 17.8 40 40 SE 12 19 29.87 1012 10 16 0.00 0.00
6:53 pm 18:53 Sunny 91 32.8 64 17.8 41 41 E 8 13 29.86 1011 10 16 0.00 0.00
7:53 pm 19:53 Sunny 89 31.7 63 17.2 42 42 E 14 22 29.86 1011 10 16 0.00 0.00
8:53 pm 20:53 Sunny 86 30 62 16.7 45 45 E 12 19 29.86 1011 10 16 0.00 0.00
9:53 pm 21:53 Clear 84 28.9 60 15.6 44 44 E 13 20 29.88 1012 10 16 0.00 0.00
10:53 pm 22:53 Clear 79 26.1 58 14.4 49 49 E 12 19 29.90 1013 10 16 0.00 0.00
11:53 pm 23:53 Clear 78 25.6 58 14.4 50 50 E 12 19 29.91 1013 10 16 0.00 0.00

Powered by AerisWeather